Weather reports worldwide

Advertisment
Damaskus/Intl, Syria (40080): temperature & dewpoint: 11.08.2018 02:00:00 - 17.08.2018 02:00:00 (EEST)Damaskus/Intl, Syria (40080): wind speed: 11.08.2018 02:00:00 - 17.08.2018 02:00:00 (EEST)Damaskus/Intl, Syria (40080): wind direction: 11.08.2018 02:00:00 - 17.08.2018 02:00:00 (EEST)Damaskus/Intl, Syria (40080): reduced air pressure: 11.08.2018 02:00:00 - 17.08.2018 02:00:00 (EEST)Damaskus/Intl, Syria (40080): visibility: 11.08.2018 02:00:00 - 17.08.2018 02:00:00 (EEST)
Date & Time tt [°C] td [°C] ff [km/h] ff [kn] dd ppp [hPa] vv [km]
17.08.2018 02:00:00 21,0 15,0 29 16 SW - 10
17.08.2018 01:00:00 22,0 14,0 29 16 SW - 10
17.08.2018 00:00:00 23,2 13,5 26 14 SSW 1005,5 10
16.08.2018 23:00:00 24,0 13,0 28 15 SSW - 10
16.08.2018 22:00:00 25,0 13,0 29 16 SSW - 10
16.08.2018 21:00:00 26,6 13,2 29 16 SSW 1005,2 10
16.08.2018 20:00:00 29,0 12,0 34 18 SW - 10
16.08.2018 19:00:00 32,0 10,0 34 18 SW - 10
16.08.2018 18:00:00 35,4 4,8 29 16 SW 1002,7 10
16.08.2018 17:00:00 37,0 5,0 29 16 SW - 10
16.08.2018 16:00:00 37,0 6,0 26 14 SSW - 10
16.08.2018 15:00:00 37,5 5,4 22 12 SW 1003,3 10
16.08.2018 14:00:00 36,0 6,0 22 12 SW - 10
16.08.2018 13:00:00 34,0 13,0 18 10 SSW - 10
16.08.2018 12:00:00 32,2 14,0 18 10 SSW 1005,4 10
16.08.2018 11:00:00 30,0 16,0 15 8 SSW - 10
16.08.2018 10:00:00 26,0 17,0 15 8 SW - 10
16.08.2018 09:00:00 24,0 19,5 22 12 SW 1006,3 10
16.08.2018 08:00:00 22,0 18,0 24 13 SW - 10
16.08.2018 07:00:00 20,0 18,0 18 10 SSW - 10
16.08.2018 06:00:00 20,6 20,1 18 10 SW 1005,0 10
16.08.2018 05:00:00 21,0 18,0 11 6 SW - 10
16.08.2018 04:00:00 21,0 18,0 22 12 SSW - 10
16.08.2018 03:00:00 21,4 19,2 21 11 SSW 1004,3 10
16.08.2018 02:00:00 21,0 17,0 24 13 SSW - 10
16.08.2018 01:00:00 22,0 17,0 26 14 SSW - 10
16.08.2018 00:00:00 23,4 19,2 24 13 SSW 1005,3 10
15.08.2018 23:00:00 24,0 17,0 28 15 SSW - 10
15.08.2018 22:00:00 25,0 16,0 34 18 SSW - 10
15.08.2018 21:00:00 27,4 19,3 34 18 SSW 1004,1 10
15.08.2018 20:00:00 30,0 15,0 28 15 SSW - 10
15.08.2018 19:00:00 32,0 14,0 22 12 SSW - 10
15.08.2018 18:00:00 34,8 18,3 28 15 SSW 1002,3 10
15.08.2018 17:00:00 35,0 13,0 11 6 SSW - 10
15.08.2018 16:00:00 36,0 9,0 13 7 S - 10
15.08.2018 15:00:00 36,0 8,0 22 12 SE 1001,9 10
15.08.2018 14:00:00 35,0 8,0 15 8 WSW - 10
15.08.2018 13:00:00 33,0 10,0 18 10 SSW - 10
15.08.2018 12:00:00 31,8 17,3 15 8 SSW 1004,0 10
15.08.2018 11:00:00 28,0 15,0 9 5 SSW - 10
15.08.2018 10:00:00 27,0 16,0 22 12 SSW - 10
15.08.2018 09:00:00 24,0 19,5 22 12 SW 1004,7 10
15.08.2018 08:00:00 22,0 18,0 18 10 SSW - 10
15.08.2018 07:00:00 21,0 18,0 26 14 SW - 10
15.08.2018 06:00:00 20,0 18,5 22 12 SSW 1003,7 10
15.08.2018 05:00:00 20,0 17,0 22 12 SW - 10
15.08.2018 04:00:00 21,0 17,0 26 14 SW - 10
15.08.2018 03:00:00 21,6 19,2 22 12 SSW 1002,8 10
15.08.2018 02:00:00 22,0 17,0 26 14 SSW - 10
15.08.2018 01:00:00 22,0 17,0 22 12 SSW - 10
15.08.2018 00:00:00 23,0 18,4 29 16 SSW 1003,4 10
14.08.2018 23:00:00 23,0 17,0 29 16 SSW - 10
14.08.2018 22:00:00 24,0 16,0 34 18 SSW - 10
14.08.2018 21:00:00 26,0 18,4 29 16 SSW 1002,4 10
14.08.2018 20:00:00 28,0 15,0 29 16 SW - 10
14.08.2018 19:00:00 32,0 12,0 26 14 SSW - 10
14.08.2018 18:00:00 33,0 18,1 26 14 SW 1000,6 10
14.08.2018 17:00:00 35,0 18,0 22 12 SW - 10
14.08.2018 16:00:00 36,0 7,0 34 18 SSW - 10
14.08.2018 15:00:00 36,4 11,4 18 10 S 1000,5 10
14.08.2018 14:00:00 36,0 5,0 8 4 W - 10
14.08.2018 13:00:00 35,0 3,0 11 6 W - 10
14.08.2018 12:00:00 33,0 9,1 4 2 SW 1002,4 10
14.08.2018 11:00:00 31,0 8,0 11 6 WSW - 10
14.08.2018 10:00:00 28,0 10,0 16 9 SSW - 10
14.08.2018 09:00:00 24,6 17,5 22 12 SSW 1003,8 10
14.08.2018 08:00:00 22,0 16,0 26 14 SW - 10
14.08.2018 07:00:00 20,0 17,0 21 11 SW - 10
14.08.2018 06:00:00 20,2 12,0 22 12 SW 1003,0 10
14.08.2018 05:00:00 20,0 16,0 16 9 SW - 10
14.08.2018 04:00:00 20,0 15,0 13 7 WSW - 10
14.08.2018 03:00:00 20,8 16,9 15 8 SW 1002,2 10
14.08.2018 02:00:00 21,0 16,0 15 8 SW - 10
14.08.2018 01:00:00 22,0 16,0 29 16 SSW - 10
14.08.2018 00:00:00 22,4 16,4 22 12 SW 1002,9 2,0
13.08.2018 23:00:00 22,0 15,0 35 19 SSW - 10
13.08.2018 22:00:00 23,0 14,0 28 15 SSW - 10
13.08.2018 21:00:00 25,0 15,4 42 23 SW 1003,3 10
13.08.2018 20:00:00 26,0 12,0 37 20 SSW - 10
13.08.2018 19:00:00 29,0 11,0 54 29 SSW - 10
13.08.2018 18:00:00 31,4 16,3 35 19 SSW 1001,7 10
13.08.2018 17:00:00 35,0 9,0 28 15 W - 10
13.08.2018 16:00:00 35,0 5,0 16 9 W - 10
13.08.2018 15:00:00 35,4 12,6 28 15 WSW 1002,0 10
13.08.2018 14:00:00 35,0 4,0 22 12 W - 10
13.08.2018 13:00:00 - - - - - - -
13.08.2018 12:00:00 32,6 9,5 26 14 WNW 1003,6 10
13.08.2018 11:00:00 - - - - - - -
13.08.2018 10:00:00 32,0 4,0 18 10 WNW - 10
13.08.2018 09:00:00 24,6 17,5 11 6 SW 1005,5 10
13.08.2018 08:00:00 23,0 17,0 21 11 S - 10
13.08.2018 07:00:00 21,0 17,0 26 14 SSW - 10
13.08.2018 06:00:00 20,4 17,6 29 16 SSW 1004,2 10
13.08.2018 05:00:00 - - - - - - -
13.08.2018 04:00:00 21,0 15,0 18 10 S - 10
13.08.2018 03:00:00 23,0 15,9 22 12 SSW 1003,6 10
13.08.2018 02:00:00 24,0 11,0 22 12 SSW - 10
13.08.2018 01:00:00 25,0 5,0 11 6 SW - 10
13.08.2018 00:00:00 26,4 10,1 16 9 W 1004,5 10
12.08.2018 23:00:00 27,0 4,0 26 14 W - 10
12.08.2018 22:00:00 28,0 4,0 28 15 W - 10
12.08.2018 21:00:00 28,6 10,5 31 17 W 1004,8 10
12.08.2018 20:00:00 30,0 4,0 29 16 W - 10
12.08.2018 19:00:00 32,0 4,0 37 20 W - 10
12.08.2018 18:00:00 35,0 12,4 34 18 W 1003,3 10
12.08.2018 17:00:00 35,0 3,0 37 20 W - 10
12.08.2018 16:00:00 36,0 3,0 26 14 NW - 10
12.08.2018 15:00:00 36,4 11,3 34 18 WNW 1004,3 10
12.08.2018 14:00:00 26,0 3,0 21 11 SW - 10
12.08.2018 13:00:00 35,0 4,0 22 12 WNW - 10
12.08.2018 12:00:00 34,0 10,9 18 10 WSW 1005,7 10
12.08.2018 11:00:00 31,0 14,0 22 12 S - 10
12.08.2018 10:00:00 28,0 15,0 26 14 S - 10
12.08.2018 09:00:00 24,8 17,7 18 10 SSW 1006,9 10
12.08.2018 08:00:00 23,0 17,0 18 10 SSW - 10
12.08.2018 07:00:00 20,0 16,0 15 8 SSW - 10
12.08.2018 06:00:00 20,8 16,7 16 9 SSW 1005,4 10
12.08.2018 05:00:00 - - 13 7 SSW - 10
12.08.2018 04:00:00 21,0 13,0 11 6 SSW - 10
12.08.2018 03:00:00 21,8 14,2 15 8 SSW 1005,0 10
12.08.2018 02:00:00 23,0 13,0 15 8 SSW - 10
12.08.2018 01:00:00 24,0 14,0 18 10 S - 10
12.08.2018 00:00:00 25,0 15,1 22 12 SW 1005,1 10
11.08.2018 23:00:00 26,0 13,0 34 18 S - 10
11.08.2018 22:00:00 27,0 12,0 34 18 SSW - 10
11.08.2018 21:00:00 28,6 16,9 34 18 S 1004,4 10
11.08.2018 20:00:00 31,0 12,0 29 16 S - 10
11.08.2018 19:00:00 33,0 10,0 29 16 SSW - 10
11.08.2018 18:00:00 35,6 16,5 41 22 SSW 1002,3 10
11.08.2018 17:00:00 37,0 8,0 15 8 S - 10
11.08.2018 16:00:00 37,0 10,0 18 10 SSE - 10
11.08.2018 15:00:00 36,4 15,1 9 5 WSW 1003,3 10
11.08.2018 14:00:00 36,0 9,0 16 9 SW - 10
11.08.2018 13:00:00 34,0 11,0 8 4 SSW - 10
11.08.2018 12:00:00 31,6 18,8 8 4 SE 1005,3 10
11.08.2018 11:00:00 30,0 15,0 8 4 WSW - 10
11.08.2018 10:00:00 27,0 17,0 4 2 N - 10
11.08.2018 09:00:00 25,0 19,6 4 2 WSW 1005,6 10
11.08.2018 08:00:00 - - - - - - -
11.08.2018 07:00:00 21,0 18,0 18 10 SSW - 10
11.08.2018 06:00:00 21,3 19,3 11 6 SW 1005,1 7
11.08.2018 05:00:00 21,0 18,0 18 10 SSW - 10
11.08.2018 04:00:00 22,0 17,0 15 8 SW - 10
11.08.2018 03:00:00 23,0 19,3 22 12 SSW 1005,1 10
11.08.2018 02:00:00 23,0 17,0 22 12 SSW - 10

tt = temperature
td = dewpoint
ff = wind speed
dd = wind direction
ppp = reduced air pressure
vv = visibility

Next stations